| time (UTC) | temp F | wind direction | speed knots | gust knots | rain 1hr in | rain 24hr in | rain mn in | humidity % | barometer mb |
| 20260510161024 | 55 | 95 | 1.7 | 13.0 | 0.00 | 0.00 | 0.00 | 62 | 1014.2 |
| 20260510152524 | 54 | 72 | 4.3 | 13.0 | 0.00 | 0.00 | 0.00 | 65 | 1014.8 |
| 20260510151024 | 54 | 4 | 1.7 | 13.0 | 0.00 | 0.00 | 0.00 | 65 | 1014.9 |
| 20260510145524 | 54 | 0 | 1.7 | 13.0 | 0.00 | 0.00 | 0.00 | 65 | 1015.0 |
| 20260510144024 | 54 | 69 | 2.6 | 13.0 | 0.00 | 0.00 | 0.00 | 66 | 1015.1 |
| 20260510142524 | 54 | 99 | 0.9 | 13.0 | 0.00 | 0.00 | 0.00 | 67 | 1015.3 |
| 20260510141024 | 54 | 69 | 1.7 | 13.0 | 0.00 | 0.00 | 0.00 | 68 | 1015.3 |
| 20260510135524 | 54 | 59 | 4.3 | 13.0 | 0.00 | 0.00 | 0.00 | 68 | 1015.4 |
| 20260510134024 | 54 | 37 | 2.6 | 13.0 | 0.00 | 0.00 | 0.00 | 67 | 1015.5 |
| 20260510132524 | 55 | 12 | 2.6 | 13.0 | 0.00 | 0.00 | 0.00 | 67 | 1015.4 |
| 20260510131025 | 55 | 354 | 4.3 | 13.0 | 0.00 | 0.00 | 0.00 | 68 | 1015.5 |
| 20260510125524 | 55 | 20 | 2.6 | 13.0 | 0.00 | 0.00 | 0.00 | 70 | 1015.7 |
| 20260510124024 | 55 | 59 | 4.3 | 13.0 | 0.00 | 0.00 | 0.00 | 69 | 1015.8 |
| 20260510122523 | 55 | 39 | 0.9 | 13.0 | 0.00 | 0.00 | 0.00 | 70 | 1015.9 |
| 20260510121023 | 56 | 76 | 2.6 | 12.2 | 0.00 | 0.00 | 0.00 | 69 | 1016.0 |
| 20260510115523 | 56 | 42 | 2.6 | 12.2 | 0.00 | 0.00 | 0.00 | 67 | 1015.9 |
| 20260510114023 | 56 | 337 | 0.9 | 12.2 | 0.00 | 0.00 | 0.00 | 68 | 1016.0 |
| 20260510112523 | 57 | 31 | 4.3 | 12.2 | 0.00 | 0.00 | 0.00 | 65 | 1016.1 |
| 20260510111024 | 56 | 0 | 0.9 | 12.2 | 0.00 | 0.00 | 0.00 | 67 | 1016.2 |
| 20260510104023 | 56 | 62 | 1.7 | 12.2 | 0.00 | 0.00 | 0.00 | 69 | 1016.4 |
| 20260510102524 | 56 | 39 | 4.3 | 12.2 | 0.00 | 0.00 | 0.00 | 68 | 1016.5 |
| 20260510101024 | 56 | 12 | 4.3 | 12.2 | 0.00 | 0.00 | 0.00 | 67 | 1016.4 |
| 20260510095524 | 55 | 30 | 2.6 | 12.2 | 0.00 | 0.00 | 0.00 | 68 | 1016.6 |
| 20260510094023 | 54 | 101 | 5.2 | 12.2 | 0.00 | 0.00 | 0.00 | 69 | 1016.7 |
| 20260510091022 | 53 | 103 | 4.3 | 12.2 | 0.00 | 0.00 | 0.00 | 71 | 1016.9 |
| 20260510085522 | 53 | 21 | 5.2 | 11.3 | 0.00 | 0.00 | 0.00 | 72 | 1017.0 |
| 20260510082522 | 51 | 4 | 2.6 | 11.3 | 0.00 | 0.00 | 0.00 | 77 | 1017.2 |
| 20260510081024 | 51 | 49 | 2.6 | 11.3 | 0.00 | 0.00 | 0.00 | 77 | 1017.1 |
| 20260510075524 | 51 | 28 | 0.9 | 10.4 | 0.00 | 0.00 | 0.00 | 78 | 1017.3 |
| 20260510074024 | 51 | 33 | 1.7 | 10.4 | 0.00 | 0.00 | 0.00 | 79 | 1017.3 |
| 20260510072523 | 50 | 29 | 1.7 | 10.4 | 0.00 | 0.00 | 0.00 | 80 | 1017.2 |
| 20260510071023 | 50 | 35 | 1.7 | 10.4 | 0.00 | 0.00 | 0.00 | 81 | 1017.1 |
| 20260510065523 | 50 | 93 | 0.9 | 10.4 | 0.00 | 0.00 | 0.00 | 82 | 1017.0 |
| 20260510064023 | 49 | 52 | 5.2 | 10.4 | 0.00 | 0.00 | 0.00 | 82 | 1017.1 |
| 20260510062523 | 49 | 69 | 2.6 | 10.4 | 0.00 | 0.00 | 0.00 | 83 | 1017.0 |
| 20260510061024 | 49 | 12 | 1.7 | 10.4 | 0.00 | 0.00 | 0.00 | 84 | 1016.8 |
| 20260510055525 | 49 | 22 | 0.0 | 10.4 | 0.00 | 0.00 | 0.00 | 84 | 1016.8 |
| 20260510054024 | 48 | 18 | 0.9 | 10.4 | 0.00 | 0.00 | 0.00 | 85 | 1016.8 |
| 20260510052524 | 48 | 13 | 0.9 | 10.4 | 0.00 | 0.00 | 0.00 | 85 | 1016.9 |
| 20260510051024 | 48 | 28 | 0.9 | 10.4 | 0.00 | 0.00 | 0.00 | 85 | 1016.9 |
| 20260510045524 | 48 | 355 | 1.7 | 10.4 | 0.00 | 0.00 | 0.00 | 84 | 1016.9 |
| 20260510044024 | 48 | 348 | 0.9 | 10.4 | 0.00 | 0.00 | 0.00 | 85 | 1016.8 |
| 20260510042524 | 48 | 13 | 0.0 | 10.4 | 0.00 | 0.00 | 0.00 | 85 | 1016.8 |
| 20260510041024 | 48 | 88 | 0.0 | 10.4 | 0.00 | 0.00 | 0.00 | 85 | 1016.8 |
| 20260510035524 | 48 | 64 | 0.9 | 10.4 | 0.00 | 0.00 | 0.00 | 85 | 1017.0 |
| 20260510034024 | 48 | 4 | 0.9 | 10.4 | 0.00 | 0.00 | 0.00 | 85 | 1017.0 |
| 20260510032524 | 48 | 40 | 0.9 | 10.4 | 0.00 | 0.00 | 0.00 | 85 | 1017.1 |
| 20260510031024 | 48 | 60 | 0.9 | 10.4 | 0.00 | 0.00 | 0.00 | 85 | 1017.2 |
| 20260510025524 | 48 | 29 | 0.9 | 10.4 | 0.00 | 0.00 | 0.00 | 85 | 1017.1 |
| 20260510024024 | 49 | 84 | 1.7 | 10.4 | 0.00 | 0.00 | 0.00 | 84 | 1017.1 |
| 20260510022524 | 49 | 343 | 0.9 | 10.4 | 0.00 | 0.00 | 0.00 | 84 | 1017.1 |
| 20260510021024 | 49 | 11 | 1.7 | 10.4 | 0.00 | 0.00 | 0.00 | 83 | 1017.0 |
| 20260510015524 | 49 | 83 | 1.7 | 10.4 | 0.00 | 0.00 | 0.00 | 83 | 1016.9 |
| 20260510014024 | 49 | 27 | 0.9 | 10.4 | 0.00 | 0.00 | 0.00 | 82 | 1017.0 |
| 20260510012524 | 50 | 10 | 0.9 | 10.4 | 0.00 | 0.00 | 0.00 | 80 | 1017.2 |
| 20260510011024 | 50 | 334 | 0.9 | 10.4 | 0.00 | 0.00 | 0.00 | 77 | 1017.1 |
| 20260510005523 | 51 | 351 | 1.7 | 10.4 | 0.00 | 0.00 | 0.00 | 71 | 1017.0 |
| 20260510004023 | 51 | 17 | 1.7 | 10.4 | 0.00 | 0.00 | 0.00 | 65 | 1017.1 |
| 20260510002523 | 52 | 343 | 0.9 | 10.4 | 0.00 | 0.00 | 0.00 | 62 | 1017.1 |
| 20260510001023 | 53 | 56 | 0.9 | 10.4 | 0.00 | 0.00 | 0.00 | 63 | 1017.1 |
| 20260509235523 | 53 | 61 | 1.7 | 10.4 | 0.00 | 0.00 | 0.00 | 62 | 1017.0 |
| 20260509234023 | 54 | 10 | 1.7 | 7.8 | 0.00 | 0.00 | 0.00 | 60 | 1016.9 |
| 20260509232523 | 54 | 76 | 1.7 | 7.8 | 0.00 | 0.00 | 0.00 | 59 | 1016.8 |
| 20260509231023 | 54 | 43 | 1.7 | 4.3 | 0.00 | 0.00 | 0.00 | 57 | 1016.8 |
| 20260509225523 | 54 | 46 | 0.9 | 10.4 | 0.00 | 0.00 | 0.00 | 58 | 1016.7 |
| 20260509224024 | 54 | 75 | 0.0 | 10.4 | 0.00 | 0.00 | 0.00 | 58 | 1016.6 |
| 20260509222523 | 54 | 60 | 0.0 | 10.4 | 0.00 | 0.00 | 0.00 | 57 | 1016.7 |
| 20260509221023 | 54 | 62 | 0.0 | 10.4 | 0.00 | 0.00 | 0.00 | 56 | 1016.6 |
| 20260509215523 | 55 | 98 | 0.0 | 10.4 | 0.00 | 0.00 | 0.00 | 55 | 1016.6 |
| 20260509214023 | 55 | 101 | 0.0 | 10.4 | 0.00 | 0.00 | 0.00 | 54 | 1016.8 |
| 20260509212524 | 56 | 101 | 0.0 | 10.4 | 0.00 | 0.00 | 0.00 | 53 | 1016.7 |
| 20260509211024 | 57 | 98 | 0.0 | 10.4 | 0.00 | 0.00 | 0.00 | 53 | 1016.4 |
| 20260509205524 | 57 | 127 | 0.9 | 10.4 | 0.00 | 0.00 | 0.00 | 53 | 1016.3 |
| 20260509204023 | 58 | 91 | 0.0 | 10.4 | 0.00 | 0.00 | 0.00 | 53 | 1016.2 |
| 20260509202524 | 58 | 105 | 0.0 | 10.4 | 0.00 | 0.00 | 0.00 | 52 | 1016.2 |
| 20260509201024 | 59 | 86 | 0.0 | 10.4 | 0.00 | 0.00 | 0.00 | 52 | 1016.0 |
| 20260509195524 | 60 | 86 | 0.0 | 10.4 | 0.00 | 0.00 | 0.00 | 50 | 1015.8 |
| 20260509194024 | 61 | 84 | 0.0 | 10.4 | 0.00 | 0.00 | 0.00 | 48 | 1015.8 |
| 20260509192524 | 61 | 84 | 0.0 | 10.4 | 0.00 | 0.00 | 0.00 | 48 | 1015.6 |
| 20260509191024 | 62 | 142 | 0.0 | 10.4 | 0.00 | 0.00 | 0.00 | 46 | 1015.5 |
| 20260509185523 | 63 | 88 | 0.0 | 10.4 | 0.00 | 0.00 | 0.00 | 46 | 1015.4 |
| 20260509184024 | 64 | 188 | 0.0 | 10.4 | 0.00 | 0.00 | 0.00 | 44 | 1015.4 |
| 20260509182524 | 65 | 84 | 0.0 | 10.4 | 0.00 | 0.00 | 0.00 | 43 | 1015.1 |
| 20260509181024 | 66 | 104 | 0.0 | 10.4 | 0.00 | 0.00 | 0.00 | 42 | 1015.1 |
| 20260509175524 | 67 | 105 | 0.9 | 10.4 | 0.00 | 0.00 | 0.00 | 43 | 1015.0 |
| 20260509174024 | 67 | 181 | 0.0 | 10.4 | 0.00 | 0.00 | 0.00 | 41 | 1014.8 |
| 20260509172524 | 68 | 186 | 0.0 | 10.4 | 0.00 | 0.00 | 0.00 | 41 | 1014.7 |
| 20260509171024 | 69 | 101 | 0.0 | 10.4 | 0.00 | 0.00 | 0.00 | 38 | 1014.8 |
| 20260509165524 | 71 | 101 | 0.0 | 10.4 | 0.00 | 0.00 | 0.00 | 37 | 1014.9 |
| 20260509164024 | 72 | 24 | 0.0 | 10.4 | 0.00 | 0.00 | 0.00 | 36 | 1014.8 |
| 20260509162524 | 72 | 75 | 1.7 | 10.4 | 0.00 | 0.00 | 0.00 | 38 | 1014.8 |